Fremont, MI

6:42 PM EST on November 12, 2019 (GMT -0500)
Fremont

Weather History for KFFX - September, 2019

Change the Weather History Date:

Wednesday, September 18, 2019

  Actual Average (WUND) Record (WUND)
Temperature  
Mean Temperature 68 °F -  
Max Temperature 79 °F - - (-1)
Min Temperature 58 °F - - (-1)
Cooling Degree Days 4    
Growing Degree Days 18 (Base 50)    
Moisture  
Dew Point 55 °F    
Average Humidity 67    
Maximum Humidity 97    
Minimum Humidity 36    
Precipitation  
Precipitation 0.00 in - - ()
Sea Level Pressure  
Sea Level Pressure 30.15 in    
Wind  
Wind Speed 5 mph ()    
Max Wind Speed 9 mph    
Max Gust Speed -    
Visibility 9.2 miles    
Events      
Averages and records for this station are not official NWS values.
T = Trace of Precipitation, MM = Missing Value Source: Averaged Metar Reports

Daily Weather History Graph

Daily Weather History Graph

Search for Another Location

Airport or City:

Astronomy

Sep. 18, 2019 Rise Set
Actual Time 7:26 AM EDT 7:49 PM EDT
Civil Twilight 6:57 AM EDT 8:17 PM EDT
Nautical Twilight 6:24 AM EDT 8:51 PM EDT
Astronomical Twilight 5:49 AM EDT 9:25 PM EDT
Moon 10:15 PM EDT (9/18) 11:35 AM EDT (9/18)
Length of Visible Light 13h 19m
Length of Day
12h 22m
Waning Gibbous, 82% of the Moon is Illuminated
Sep 18
Waning Gibbous
Sep 21
Last Quarter
Sep 28
New
Oct 5
First Quarter
Oct 13
Full

Hourly Weather History & Observations

Time (EDT) Temp. Dew Point Humidity Pressure Visibility Wind Dir Wind Speed Gust Speed Precip Events Conditions
12:15 AM 60.8 °F 59.0 °F 94% 30.17 in 10.0 mi ESE 3.5 mph - N/A   Clear
12:35 AM 60.1 °F 58.6 °F 95% 30.17 in 10.0 mi ESE 3.5 mph - N/A   Clear
12:36 AM 60.1 °F 58.6 °F 95% 30.17 in 10.0 mi ESE 3.5 mph - N/A   Clear
12:59 AM 59.9 °F 58.5 °F 95% 30.17 in 10.0 mi East 4.6 mph - N/A   Clear
1:17 AM 60.4 °F 59.0 °F 95% 30.16 in 10.0 mi East 4.6 mph - N/A   Clear
1:35 AM 60.3 °F 58.8 °F 95% 30.17 in 10.0 mi East 3.5 mph - N/A   Clear
1:36 AM 60.3 °F 58.8 °F 95% 30.17 in 10.0 mi East 3.5 mph - N/A   Clear
1:55 AM 60.1 °F 58.6 °F 95% 30.17 in 10.0 mi ESE 3.5 mph - N/A   Clear
2:15 AM 60.1 °F 58.6 °F 95% 30.17 in 10.0 mi ESE 3.5 mph - N/A   Clear
2:38 AM 59.4 °F 58.1 °F 96% 30.17 in 7.0 mi ESE 3.5 mph - N/A   Clear
2:55 AM 59.7 °F 58.5 °F 96% 30.17 in 7.0 mi ESE 5.8 mph - N/A   Clear
3:15 AM 60.8 °F 59.2 °F 94% 30.17 in 10.0 mi ESE 4.6 mph - N/A   Clear
3:35 AM 60.4 °F 58.8 °F 94% 30.16 in 10.0 mi ESE 4.6 mph - N/A   Clear
4:17 AM 59.9 °F 58.3 °F 94% 30.17 in 7.0 mi SE 4.6 mph - N/A   Clear
4:35 AM 59.9 °F 58.3 °F 94% 30.17 in 7.0 mi ESE 3.5 mph - N/A   Clear
4:36 AM 59.9 °F 58.3 °F 94% 30.17 in 7.0 mi ESE 3.5 mph - N/A   Clear
4:55 AM 59.2 °F 58.1 °F 96% 30.17 in 7.0 mi ESE 3.5 mph - N/A   Clear
4:56 AM 59.2 °F 58.1 °F 96% 30.17 in 7.0 mi ESE 3.5 mph - N/A   Clear
5:15 AM 59.0 °F 58.1 °F 97% 30.16 in 5.0 mi ESE 4.6 mph - N/A   Clear
5:38 AM 58.8 °F 57.7 °F 96% 30.16 in 5.0 mi ESE 4.6 mph - N/A   Clear
5:55 AM 58.8 °F 57.7 °F 96% 30.16 in 5.0 mi ESE 4.6 mph - N/A   Clear
6:15 AM 59.7 °F 58.3 °F 95% 30.16 in 7.0 mi SE 3.5 mph - N/A   Clear
6:16 AM 59.7 °F 58.3 °F 95% 30.16 in 7.0 mi SE 3.5 mph - N/A   Clear
6:35 AM 59.2 °F 57.7 °F 95% 30.15 in 7.0 mi ESE 3.5 mph - N/A   Clear
6:36 AM 59.0 °F 57.6 °F 95% 30.15 in 7.0 mi ESE 3.5 mph - N/A   Clear
6:59 AM 59.0 °F 57.4 °F 94% 30.15 in 7.0 mi ESE 3.5 mph - N/A   Clear
7:16 AM 58.8 °F 56.7 °F 93% 30.15 in 10.0 mi ESE 3.5 mph - N/A   Clear
7:35 AM 59.4 °F 57.2 °F 93% 30.15 in 10.0 mi ESE 5.8 mph - N/A   Clear
7:36 AM 59.5 °F 57.2 °F 92% 30.15 in 10.0 mi ESE 5.8 mph - N/A   Clear
7:55 AM 59.9 °F 57.0 °F 90% 30.16 in 10.0 mi SE 4.6 mph - N/A   Clear
7:56 AM 59.9 °F 57.0 °F 90% 30.16 in 10.0 mi SE 5.8 mph - N/A   Clear
8:15 AM 60.3 °F 56.7 °F 88% 30.16 in 10.0 mi ESE 5.8 mph - N/A   Clear
8:38 AM 61.2 °F 57.4 °F 87% 30.16 in 10.0 mi SE 4.6 mph - N/A   Clear
8:56 AM 61.9 °F 57.7 °F 86% 30.16 in 10.0 mi SE 4.6 mph - N/A   Clear
9:15 AM 63.3 °F 58.3 °F 84% 30.16 in 10.0 mi SE 4.6 mph - N/A   Clear
9:16 AM 63.3 °F 58.3 °F 84% 30.16 in 10.0 mi SE 4.6 mph - N/A   Clear
9:35 AM 64.8 °F 56.1 °F 74% 30.17 in 10.0 mi SE 5.8 mph - N/A   Clear
9:59 AM 66.2 °F 53.6 °F 64% 30.18 in 10.0 mi SE 6.9 mph - N/A   Clear
10:17 AM 67.8 °F 53.2 °F 60% 30.18 in 10.0 mi SE 8.1 mph - N/A   Clear
10:35 AM 69.3 °F 52.5 °F 55% 30.18 in 10.0 mi SSE 5.8 mph - N/A   Clear
10:36 AM 69.3 °F 52.5 °F 55% 30.17 in 10.0 mi SSE 5.8 mph - N/A   Clear
10:55 AM 70.7 °F 52.7 °F 53% 30.18 in 10.0 mi South 6.9 mph - N/A   Clear
10:56 AM 70.7 °F 52.7 °F 53% 30.18 in 10.0 mi South 8.1 mph - N/A   Clear
11:15 AM 71.1 °F 53.1 °F 53% 30.18 in 10.0 mi South 5.8 mph - N/A   Clear
11:20 AM 71.6 °F 53.6 °F 53% 30.18 in 10.0 mi SSW 6.9 mph - N/A   Clear
11:38 AM 73.0 °F 53.8 °F 51% 30.18 in 10.0 mi SSW 9.2 mph - N/A   Clear
11:56 AM 73.6 °F 53.2 °F 49% 30.18 in 10.0 mi SSW 6.9 mph - N/A   Clear
12:15 PM 74.3 °F 53.2 °F 48% 30.18 in 10.0 mi SSW 5.8 mph - N/A   Clear
12:35 PM 75.4 °F 52.7 °F 45% 30.19 in 10.0 mi South 9.2 mph - N/A   Clear
12:59 PM 76.1 °F 52.7 °F 44% 30.19 in 10.0 mi South 8.1 mph - N/A   Clear
1:17 PM 77.0 °F 53.1 °F 43% 30.19 in 10.0 mi SSW 9.2 mph - N/A   Clear
1:36 PM 77.5 °F 53.6 °F 43% 30.19 in 10.0 mi South 9.2 mph - N/A   Clear
1:55 PM 77.2 °F 53.6 °F 44% 30.18 in 10.0 mi South 5.8 mph - N/A   Clear
2:15 PM 78.3 °F 52.7 °F 41% 30.18 in 10.0 mi South 6.9 mph - N/A   Clear
2:38 PM 79.0 °F 52.5 °F 40% 30.17 in 10.0 mi SSW 5.8 mph - N/A   Scattered Clouds
2:56 PM 78.8 °F 52.0 °F 39% 30.17 in 10.0 mi SW 6.9 mph - N/A   Scattered Clouds
3:15 PM 79.0 °F 52.2 °F 39% 30.16 in 7.0 mi SSW 5.8 mph - N/A   Scattered Clouds
3:35 PM 79.5 °F 51.4 °F 37% 30.15 in 7.0 mi SSW 8.1 mph - N/A   Clear
3:59 PM 79.9 °F 51.8 °F 38% 30.14 in 10.0 mi South 6.9 mph - N/A   Clear
4:17 PM 79.7 °F 52.2 °F 38% 30.13 in 10.0 mi SE 5.8 mph - N/A   Clear
4:35 PM 79.3 °F 49.8 °F 36% 30.13 in 10.0 mi South 6.9 mph - N/A   Clear
4:36 PM 79.2 °F 50.4 °F 36% 30.13 in 10.0 mi South 5.8 mph - N/A   Clear
4:55 PM 79.2 °F 51.4 °F 38% 30.12 in 10.0 mi SSE 8.1 mph - N/A   Clear
4:56 PM 79.0 °F 51.3 °F 38% 30.12 in 10.0 mi SSE 8.1 mph - N/A   Clear
5:15 PM 79.2 °F 51.1 °F 37% 30.12 in 7.0 mi South 9.2 mph - N/A   Clear
5:38 PM 79.2 °F 51.1 °F 37% 30.12 in 7.0 mi South 6.9 mph - N/A   Clear
5:56 PM 78.8 °F 50.4 °F 37% 30.11 in 7.0 mi South 5.8 mph - N/A   Clear
6:15 PM 78.3 °F 50.0 °F 37% 30.10 in 10.0 mi SSE 6.9 mph - N/A   Clear
6:16 PM 78.3 °F 50.2 °F 37% 30.10 in 10.0 mi SSE 6.9 mph - N/A   Clear
6:35 PM 77.5 °F 50.7 °F 39% 30.10 in 10.0 mi SSE 4.6 mph - N/A   Clear
6:59 PM 75.7 °F 52.2 °F 44% 30.10 in 10.0 mi SSE 3.5 mph - N/A   Clear
7:17 PM 74.7 °F 52.9 °F 46% 30.11 in 10.0 mi Calm Calm - N/A   Clear
7:35 PM 73.4 °F 53.8 °F 50% 30.11 in 10.0 mi SSE 3.5 mph - N/A   Clear
7:55 PM 70.5 °F 55.0 °F 58% 30.10 in 10.0 mi SE 4.6 mph - N/A   Clear
7:56 PM 70.5 °F 54.9 °F 58% 30.10 in 10.0 mi SE 4.6 mph - N/A   Clear
8:15 PM 70.7 °F 53.6 °F 55% 30.10 in 10.0 mi SE 4.6 mph - N/A   Clear
8:20 PM 70.7 °F 53.6 °F 55% 30.10 in 10.0 mi SE 4.6 mph - N/A   Clear
9:15 PM 69.1 °F 52.9 °F 56% 30.11 in 10.0 mi SE 4.6 mph - N/A   Clear
9:35 PM 68.5 °F 52.9 °F 57% 30.11 in 10.0 mi SE 4.6 mph - N/A   Clear
9:59 PM 67.5 °F 53.2 °F 60% 30.11 in 10.0 mi SE 4.6 mph - N/A   Clear
10:17 PM 67.6 °F 53.2 °F 60% 30.12 in 10.0 mi ESE 4.6 mph - N/A   Clear
10:36 PM 67.3 °F 53.8 °F 62% 30.11 in 10.0 mi ESE 6.9 mph - N/A   Clear
10:55 PM 68.0 °F 53.2 °F 59% 30.11 in 10.0 mi SE 6.9 mph - N/A   Clear
11:15 PM 68.0 °F 52.5 °F 58% 30.12 in 10.0 mi SE 6.9 mph - N/A   Clear
11:38 PM 68.0 °F 50.7 °F 54% 30.12 in 10.0 mi SE 5.8 mph - N/A   Clear
11:56 PM 67.5 °F 50.5 °F 55% 30.12 in 10.0 mi SSE 4.6 mph - N/A   Clear